Location: Sankt Anna
(58.3452°N, 16.7040°E)
Time: 00:53:15
(UTC+02:00)

DX 1 - Pass Details

Date: 25 May 2019
Orbit: 619 x 631 km, 98.4° (Epoch: 25 June)

Event Time Altitude Azimuth Distance (km) Brightness Sun altitude
Rises 02:58:55 0° 144° (SE) 2,907 ? -6.4°
Reaches altitude 10° 03:01:08 10° 139° (SE) 2,006 ? -6.3°
Maximum altitude 03:05:21 50° 65° (ENE) 805 ? -6.0°
Drops below altitude 10° 03:09:37 10° 350° (N) 2,026 ? -5.7°
Sets 03:11:52 0° 345° (NNW) 2,939 ? -5.5°
